| time (UTC) | temp F | wind direction | speed MPH | gust MPH | rain 1hr in | rain 24hr in | rain mn in | humidity % | barometer mb |
| 20260506033309 | 47 | 324 | 3.0 | 7.0 | 0.00 | 0.05 | 0.04 | 94 | 1005.8 |
| 20260506032801 | 47 | 334 | 2.0 | 5.0 | 0.00 | 0.05 | 0.04 | 94 | 1005.8 |
| 20260506032252 | 47 | 316 | 3.0 | 7.0 | 0.00 | 0.05 | 0.04 | 94 | 1005.7 |
| 20260506031744 | 47 | 311 | 3.0 | 6.0 | 0.00 | 0.05 | 0.04 | 94 | 1005.8 |
| 20260506031237 | 47 | 6 | 2.0 | 8.0 | 0.00 | 0.05 | 0.04 | 94 | 1005.8 |
| 20260506030732 | 47 | 340 | 3.0 | 7.0 | 0.01 | 0.05 | 0.04 | 94 | 1005.9 |
| 20260506030222 | 47 | 322 | 3.0 | 8.0 | 0.01 | 0.05 | 0.04 | 94 | 1006.0 |
| 20260506025711 | 47 | 356 | 3.0 | 8.0 | 0.01 | 0.05 | 0.04 | 94 | 1006.1 |
| 20260506025306 | 47 | 351 | 2.0 | 8.0 | 0.01 | 0.05 | 0.04 | 94 | 1006.0 |
| 20260506024758 | 47 | 348 | 2.0 | 6.0 | 0.01 | 0.05 | 0.04 | 94 | 1006.0 |
| 20260506024250 | 47 | 342 | 2.0 | 5.0 | 0.01 | 0.05 | 0.04 | 94 | 1006.1 |
| 20260506024137 | 47 | 291 | 2.0 | 5.0 | 0.01 | 0.05 | 0.04 | 93 | 1006.1 |
| 20260506023531 | 47 | 347 | 3.0 | 7.0 | 0.01 | 0.05 | 0.04 | 93 | 1006.1 |
| 20260506023027 | 47 | 356 | 3.0 | 7.0 | 0.01 | 0.05 | 0.04 | 93 | 1006.1 |
| 20260506022216 | 47 | 325 | 2.0 | 8.0 | 0.01 | 0.05 | 0.04 | 93 | 1006.2 |
| 20260506021710 | 47 | 323 | 3.0 | 8.0 | 0.01 | 0.05 | 0.04 | 93 | 1006.1 |
| 20260506021205 | 47 | 342 | 3.0 | 8.0 | 0.01 | 0.06 | 0.04 | 93 | 1006.2 |
| 20260506020809 | 47 | 331 | 3.0 | 6.0 | 0.00 | 0.05 | 0.03 | 93 | 1006.2 |
| 20260506020246 | 48 | 330 | 3.0 | 6.0 | 0.00 | 0.05 | 0.03 | 93 | 1006.2 |
| 20260506020136 | 47 | 334 | 2.0 | 6.0 | 0.00 | 0.05 | 0.03 | 93 | 1006.2 |
| 20260506015228 | 48 | 352 | 2.0 | 9.0 | 0.01 | 0.05 | 0.03 | 93 | 1006.3 |
| 20260506014720 | 48 | 6 | 2.0 | 9.0 | 0.01 | 0.05 | 0.03 | 93 | 1006.3 |
| 20260506014211 | 48 | 341 | 2.0 | 5.0 | 0.01 | 0.05 | 0.03 | 93 | 1006.3 |
| 20260506013659 | 48 | 6 | 2.0 | 5.0 | 0.01 | 0.05 | 0.03 | 93 | 1006.3 |
| 20260506013654 | 48 | 320 | 2.0 | 7.0 | 0.01 | 0.05 | 0.03 | 93 | 1006.4 |
| 20260506012750 | 48 | 24 | 2.0 | 7.0 | 0.01 | 0.05 | 0.03 | 93 | 1006.4 |
| 20260506012240 | 48 | 356 | 3.0 | 6.0 | 0.01 | 0.05 | 0.03 | 93 | 1006.4 |
| 20260506011732 | 48 | 349 | 3.0 | 7.0 | 0.01 | 0.05 | 0.03 | 93 | 1006.4 |
| 20260506011526 | 48 | 30 | 2.0 | 7.0 | 0.01 | 0.05 | 0.03 | 93 | 1006.4 |
| 20260506010719 | 48 | 330 | 2.0 | 6.0 | 0.01 | 0.05 | 0.03 | 93 | 1006.5 |
| 20260506010211 | 48 | 346 | 3.0 | 6.0 | 0.01 | 0.05 | 0.03 | 93 | 1006.4 |
| 20260506005704 | 48 | 349 | 3.0 | 6.0 | 0.01 | 0.05 | 0.03 | 93 | 1006.5 |
| 20260506005456 | 48 | 310 | 3.0 | 7.0 | 0.00 | 0.05 | 0.03 | 93 | 1006.6 |
| 20260506005040 | 48 | 356 | 2.0 | 6.0 | 0.01 | 0.05 | 0.02 | 93 | 1006.7 |
| 20260506005036 | 48 | 36 | 2.0 | 7.0 | 0.01 | 0.05 | 0.02 | 93 | 1006.6 |
| 20260506004230 | 48 | 6 | 2.0 | 6.0 | 0.01 | 0.05 | 0.02 | 93 | 1006.7 |
| 20260506003729 | 48 | 324 | 2.0 | 5.0 | 0.01 | 0.05 | 0.02 | 93 | 1006.6 |
| 20260506002714 | 48 | 6 | 1.0 | 6.0 | 0.01 | 0.05 | 0.02 | 93 | 1006.7 |
| 20260506002205 | 48 | 339 | 2.0 | 4.0 | 0.01 | 0.05 | 0.02 | 93 | 1006.7 |
| 20260506001657 | 48 | 337 | 2.0 | 7.0 | 0.01 | 0.05 | 0.02 | 93 | 1006.7 |
| 20260506001151 | 48 | 337 | 2.0 | 7.0 | 0.01 | 0.05 | 0.02 | 93 | 1006.8 |
| 20260506000743 | 48 | 328 | 2.0 | 6.0 | 0.01 | 0.05 | 0.02 | 93 | 1006.8 |
| 20260506000235 | 48 | 341 | 3.0 | 6.0 | 0.02 | 0.05 | 0.02 | 93 | 1006.9 |
| 20260505235727 | 49 | 10 | 2.0 | 6.0 | 0.02 | 0.05 | 0.02 | 92 | 1006.9 |
| 20260505235221 | 49 | 339 | 1.0 | 4.0 | 0.02 | 0.05 | 0.02 | 92 | 1007.0 |
| 20260505235110 | 49 | 345 | 2.0 | 6.0 | 0.01 | 0.04 | 0.02 | 92 | 1007.0 |
| 20260505234205 | 49 | 335 | 2.0 | 6.0 | 0.01 | 0.04 | 0.02 | 92 | 1007.0 |
| 20260505233656 | 49 | 352 | 2.0 | 5.0 | 0.01 | 0.04 | 0.02 | 92 | 1007.1 |
| 20260505233151 | 49 | 345 | 2.0 | 7.0 | 0.01 | 0.04 | 0.02 | 92 | 1007.1 |
| 20260505232740 | 49 | 339 | 3.0 | 8.0 | 0.01 | 0.04 | 0.02 | 92 | 1007.1 |
| 20260505232230 | 49 | 315 | 2.0 | 8.0 | 0.02 | 0.04 | 0.02 | 92 | 1007.1 |
| 20260505231725 | 49 | 349 | 2.0 | 6.0 | 0.02 | 0.04 | 0.02 | 92 | 1007.2 |
| 20260505231217 | 49 | 10 | 2.0 | 6.0 | 0.02 | 0.04 | 0.02 | 91 | 1007.2 |
| 20260505230706 | 49 | 303 | 2.0 | 7.0 | 0.02 | 0.04 | 0.02 | 91 | 1007.2 |
| 20260505230159 | 49 | 10 | 3.0 | 7.0 | 0.01 | 0.03 | 0.01 | 91 | 1007.2 |
| 20260505225651 | 49 | 25 | 3.0 | 6.0 | 0.01 | 0.03 | 0.01 | 91 | 1007.2 |
| 20260505225145 | 49 | 327 | 2.0 | 6.0 | 0.01 | 0.03 | 0.01 | 91 | 1007.3 |
| 20260505224735 | 49 | 351 | 3.0 | 8.0 | 0.01 | 0.03 | 0.01 | 91 | 1007.3 |
| 20260505224227 | 49 | 350 | 3.0 | 8.0 | 0.01 | 0.03 | 0.01 | 91 | 1007.2 |
| 20260505223719 | 49 | 325 | 3.0 | 6.0 | 0.01 | 0.03 | 0.01 | 91 | 1007.3 |
| 20260505223216 | 50 | 10 | 2.0 | 6.0 | 0.01 | 0.04 | 0.01 | 90 | 1007.3 |
| 20260505222707 | 50 | 349 | 2.0 | 4.0 | 0.01 | 0.04 | 0.01 | 90 | 1007.3 |
| 20260505222500 | 50 | 339 | 2.0 | 5.0 | 0.00 | 0.03 | 0.00 | 90 | 1007.3 |
| 20260505221650 | 50 | 347 | 2.0 | 6.0 | 0.00 | 0.03 | 0.00 | 90 | 1007.3 |
| 20260505221143 | 50 | 10 | 3.0 | 7.0 | 0.00 | 0.03 | 0.00 | 89 | 1007.4 |
| 20260505221034 | 50 | 6 | 4.0 | 8.0 | 0.00 | 0.03 | 0.00 | 89 | 1007.4 |
| 20260505220221 | 50 | 346 | 4.0 | 8.0 | 0.00 | 0.03 | 0.00 | 89 | 1007.4 |
| 20260505215710 | 50 | 334 | 3.0 | 8.0 | 0.00 | 0.03 | 0.03 | 89 | 1007.4 |
| 20260505215201 | 50 | 346 | 4.0 | 9.0 | 0.00 | 0.03 | 0.03 | 89 | 1007.4 |
| 20260505214653 | 50 | 329 | 3.0 | 9.0 | 0.00 | 0.03 | 0.03 | 89 | 1007.5 |
| 20260505214148 | 50 | 6 | 2.0 | 5.0 | 0.00 | 0.04 | 0.03 | 89 | 1007.5 |
| 20260505213638 | 50 | 340 | 3.0 | 7.0 | 0.00 | 0.04 | 0.03 | 89 | 1007.5 |
| 20260505213228 | 50 | 336 | 3.0 | 7.0 | 0.00 | 0.04 | 0.03 | 89 | 1007.6 |
| 20260505212721 | 50 | 25 | 3.0 | 7.0 | 0.00 | 0.04 | 0.03 | 89 | 1007.6 |
| 20260505212307 | 50 | 6 | 3.0 | 7.0 | 0.00 | 0.05 | 0.03 | 89 | 1007.5 |
| 20260505212046 | 50 | 314 | 3.0 | 7.0 | 0.00 | 0.05 | 0.03 | 89 | 1007.6 |
| 20260505211253 | 50 | 6 | 4.0 | 9.0 | 0.00 | 0.05 | 0.03 | 89 | 1007.6 |
| 20260505211053 | 50 | 335 | 4.0 | 9.0 | 0.00 | 0.05 | 0.03 | 89 | 1007.6 |
| 20260505210231 | 50 | 349 | 3.0 | 8.0 | 0.00 | 0.05 | 0.03 | 89 | 1007.7 |
| 20260505210034 | 50 | 19 | 4.0 | 7.0 | 0.00 | 0.06 | 0.03 | 89 | 1007.8 |
| 20260505205315 | 51 | 332 | 4.0 | 9.0 | 0.00 | 0.06 | 0.03 | 89 | 1007.7 |
| 20260505205118 | 51 | 10 | 4.0 | 9.0 | 0.00 | 0.06 | 0.03 | 89 | 1007.7 |
| 20260505204259 | 51 | 1 | 3.0 | 9.0 | 0.00 | 0.06 | 0.03 | 89 | 1007.8 |
| 20260505203749 | 51 | 35 | 5.0 | 12.0 | 0.00 | 0.06 | 0.03 | 89 | 1007.8 |
| 20260505203242 | 51 | 18 | 5.0 | 12.0 | 0.00 | 0.06 | 0.03 | 89 | 1007.8 |
| 20260505202734 | 51 | 309 | 4.0 | 11.0 | 0.00 | 0.06 | 0.03 | 89 | 1007.8 |
| 20260505202226 | 51 | 18 | 3.0 | 10.0 | 0.00 | 0.06 | 0.03 | 89 | 1007.8 |
| 20260505201716 | 51 | 320 | 2.0 | 5.0 | 0.00 | 0.06 | 0.03 | 89 | 1007.8 |
| 20260505201300 | 51 | 334 | 3.0 | 8.0 | 0.00 | 0.06 | 0.03 | 89 | 1007.8 |
| 20260505200755 | 51 | 21 | 3.0 | 8.0 | 0.00 | 0.06 | 0.03 | 89 | 1007.7 |
| 20260505200248 | 51 | 348 | 3.0 | 6.0 | 0.00 | 0.06 | 0.03 | 89 | 1007.7 |
| 20260505195738 | 51 | 52 | 3.0 | 8.0 | 0.00 | 0.06 | 0.03 | 89 | 1007.7 |
| 20260505195230 | 51 | 6 | 4.0 | 8.0 | 0.00 | 0.06 | 0.03 | 89 | 1007.7 |
| 20260505194724 | 51 | 356 | 4.0 | 7.0 | 0.00 | 0.06 | 0.03 | 89 | 1007.6 |
| 20260505194213 | 51 | 349 | 3.0 | 7.0 | 0.00 | 0.06 | 0.03 | 89 | 1007.6 |
| 20260505194016 | 51 | 6 | 3.0 | 7.0 | 0.00 | 0.06 | 0.03 | 89 | 1007.5 |
| 20260505193911 | 51 | 17 | 2.0 | 8.0 | 0.00 | 0.06 | 0.03 | 89 | 1007.5 |
| 20260505192750 | 51 | 324 | 2.0 | 6.0 | 0.00 | 0.06 | 0.03 | 90 | 1007.4 |
| 20260505192743 | 51 | 351 | 3.0 | 8.0 | 0.00 | 0.06 | 0.03 | 89 | 1007.5 |
| 20260505192237 | 51 | 47 | 2.0 | 7.0 | 0.00 | 0.06 | 0.03 | 89 | 1007.4 |
| 20260505191833 | 51 | 347 | 2.0 | 7.0 | 0.00 | 0.06 | 0.03 | 90 | 1007.4 |
| 20260505190715 | 51 | 345 | 2.0 | 6.0 | 0.00 | 0.06 | 0.03 | 90 | 1007.4 |
| 20260505190207 | 51 | 322 | 3.0 | 7.0 | 0.00 | 0.06 | 0.03 | 90 | 1007.4 |
| 20260505185701 | 51 | 324 | 2.0 | 7.0 | 0.00 | 0.06 | 0.03 | 90 | 1007.3 |
| 20260505185250 | 51 | 350 | 2.0 | 4.0 | 0.00 | 0.06 | 0.03 | 89 | 1007.3 |
| 20260505184743 | 51 | 351 | 2.0 | 4.0 | 0.00 | 0.06 | 0.03 | 89 | 1007.3 |
| 20260505184233 | 51 | 348 | 2.0 | 5.0 | 0.00 | 0.06 | 0.03 | 89 | 1007.4 |
| 20260505183726 | 51 | 345 | 2.0 | 5.0 | 0.00 | 0.06 | 0.03 | 89 | 1007.4 |
| 20260505183223 | 51 | 30 | 2.0 | 5.0 | 0.00 | 0.06 | 0.03 | 89 | 1007.3 |
| 20260505182714 | 51 | 338 | 3.0 | 6.0 | 0.00 | 0.06 | 0.03 | 89 | 1007.3 |
| 20260505182207 | 51 | 346 | 3.0 | 6.0 | 0.00 | 0.06 | 0.03 | 89 | 1007.3 |
| 20260505182007 | 51 | 356 | 3.0 | 6.0 | 0.00 | 0.06 | 0.03 | 90 | 1007.3 |
| 20260505181246 | 51 | 349 | 3.0 | 6.0 | 0.00 | 0.06 | 0.03 | 89 | 1007.3 |
| 20260505180732 | 51 | 356 | 2.0 | 6.0 | 0.00 | 0.06 | 0.03 | 89 | 1007.4 |
| 20260505180227 | 51 | 18 | 2.0 | 7.0 | 0.00 | 0.06 | 0.03 | 90 | 1007.4 |
| 20260505175727 | 51 | 356 | 2.0 | 6.0 | 0.00 | 0.06 | 0.03 | 90 | 1007.4 |
| 20260505175720 | 51 | 326 | 3.0 | 7.0 | 0.00 | 0.06 | 0.03 | 90 | 1007.4 |
| 20260505174708 | 51 | 351 | 1.0 | 4.0 | 0.00 | 0.06 | 0.03 | 90 | 1007.4 |
| 20260505174203 | 51 | 6 | 1.0 | 5.0 | 0.00 | 0.06 | 0.03 | 90 | 1007.5 |
| 20260505173654 | 52 | 6 | 2.0 | 6.0 | 0.00 | 0.06 | 0.03 | 90 | 1007.4 |
| 20260505173148 | 51 | 350 | 3.0 | 7.0 | 0.00 | 0.06 | 0.03 | 90 | 1007.4 |
| 20260505172734 | 51 | 67 | 2.0 | 7.0 | 0.00 | 0.06 | 0.03 | 90 | 1007.4 |
| 20260505172223 | 52 | 319 | 3.0 | 7.0 | 0.00 | 0.06 | 0.03 | 90 | 1007.3 |
| 20260505171723 | 52 | 340 | 3.0 | 6.0 | 0.00 | 0.06 | 0.03 | 90 | 1007.3 |
| 20260505171715 | 52 | 348 | 3.0 | 7.0 | 0.00 | 0.06 | 0.03 | 90 | 1007.3 |
| 20260505170701 | 52 | 356 | 2.0 | 8.0 | 0.00 | 0.06 | 0.03 | 90 | 1007.4 |
| 20260505170154 | 52 | 324 | 3.0 | 8.0 | 0.00 | 0.06 | 0.03 | 90 | 1007.4 |
| 20260505165650 | 52 | 340 | 3.0 | 8.0 | 0.00 | 0.06 | 0.03 | 90 | 1007.4 |
| 20260505165144 | 52 | 20 | 3.0 | 8.0 | 0.00 | 0.06 | 0.03 | 90 | 1007.5 |
| 20260505164731 | 52 | 280 | 3.0 | 7.0 | 0.00 | 0.06 | 0.03 | 90 | 1007.5 |
| 20260505164223 | 52 | 319 | 3.0 | 8.0 | 0.00 | 0.06 | 0.03 | 90 | 1007.5 |
| 20260505163714 | 52 | 17 | 3.0 | 8.0 | 0.00 | 0.06 | 0.03 | 90 | 1007.5 |
| 20260505163204 | 52 | 351 | 2.0 | 6.0 | 0.00 | 0.06 | 0.03 | 90 | 1007.5 |
| 20260505162658 | 52 | 346 | 2.0 | 6.0 | 0.00 | 0.06 | 0.03 | 90 | 1007.5 |
| 20260505162150 | 52 | 356 | 2.0 | 6.0 | 0.00 | 0.06 | 0.03 | 90 | 1007.6 |
| 20260505161641 | 52 | 305 | 2.0 | 5.0 | 0.00 | 0.06 | 0.03 | 90 | 1007.6 |
| 20260505161136 | 52 | 6 | 3.0 | 7.0 | 0.00 | 0.06 | 0.03 | 90 | 1007.6 |
| 20260505160734 | 52 | 29 | 2.0 | 6.0 | 0.00 | 0.06 | 0.03 | 90 | 1007.7 |
| 20260505160630 | 52 | 342 | 3.0 | 7.0 | 0.00 | 0.06 | 0.03 | 89 | 1007.6 |
| 20260505153141 | 52 | 346 | 2.0 | 7.0 | 0.00 | 0.06 | 0.03 | 90 | 1007.8 |
| 20260505152627 | 52 | 42 | 3.0 | 8.0 | 0.00 | 0.06 | 0.03 | 90 | 1007.8 |
| 20260505152215 | 52 | 11 | 2.0 | 8.0 | 0.00 | 0.06 | 0.03 | 90 | 1007.9 |
| 20260505151705 | 52 | 328 | 2.0 | 6.0 | 0.00 | 0.06 | 0.03 | 90 | 1007.9 |
| 20260505151158 | 52 | 322 | 3.0 | 8.0 | 0.00 | 0.06 | 0.03 | 90 | 1007.9 |
| 20260505150650 | 52 | 351 | 3.0 | 8.0 | 0.00 | 0.06 | 0.03 | 90 | 1008.0 |
| 20260505150140 | 52 | 328 | 3.0 | 8.0 | 0.00 | 0.06 | 0.03 | 90 | 1008.0 |
| 20260505140614 | 51 | 28 | 3.0 | 8.0 | 0.00 | 0.06 | 0.03 | 91 | 1008.3 |
| 20260505130120 | 51 | 1 | 4.0 | 10.0 | 0.00 | 0.06 | 0.03 | 92 | 1008.7 |
| 20260505130113 | 51 | 338 | 4.0 | 10.0 | 0.00 | 0.06 | 0.03 | 92 | 1008.7 |
| 20260505124557 | 51 | 290 | 3.0 | 9.0 | 0.00 | 0.06 | 0.03 | 93 | 1008.8 |
| 20260505124036 | 51 | 336 | 3.0 | 8.0 | 0.00 | 0.06 | 0.03 | 93 | 1008.8 |
| 20260505123524 | 51 | 27 | 3.0 | 8.0 | 0.00 | 0.06 | 0.03 | 92 | 1008.8 |
| 20260505123117 | 51 | 13 | 3.0 | 7.0 | 0.00 | 0.06 | 0.03 | 92 | 1008.8 |
| 20260505122619 | 51 | 356 | 2.0 | 7.0 | 0.00 | 0.06 | 0.03 | 93 | 1008.8 |
| 20260505122058 | 51 | 27 | 2.0 | 8.0 | 0.00 | 0.06 | 0.03 | 93 | 1008.8 |
| 20260505121550 | 51 | 6 | 4.0 | 9.0 | 0.00 | 0.06 | 0.03 | 93 | 1008.8 |
| 20260505121039 | 51 | 12 | 4.0 | 11.0 | 0.00 | 0.06 | 0.03 | 93 | 1008.8 |
| 20260505120532 | 51 | 6 | 5.0 | 11.0 | 0.00 | 0.06 | 0.03 | 93 | 1008.8 |
| 20260505120020 | 51 | 337 | 6.0 | 12.0 | 0.00 | 0.06 | 0.03 | 93 | 1008.8 |
| 20260505115512 | 51 | 28 | 5.0 | 12.0 | 0.00 | 0.06 | 0.03 | 94 | 1008.8 |
| 20260505115008 | 51 | 356 | 4.0 | 12.0 | 0.00 | 0.06 | 0.03 | 94 | 1008.8 |
| 20260505114601 | 51 | 1 | 4.0 | 9.0 | 0.00 | 0.06 | 0.03 | 94 | 1008.9 |
| 20260505114555 | 51 | 349 | 4.0 | 12.0 | 0.00 | 0.06 | 0.03 | 94 | 1008.9 |
| 20260505113534 | 51 | 23 | 5.0 | 11.0 | 0.00 | 0.06 | 0.03 | 94 | 1008.9 |
| 20260505113026 | 50 | 6 | 5.0 | 11.0 | 0.00 | 0.06 | 0.03 | 93 | 1009.0 |
| 20260505112523 | 50 | 6 | 4.0 | 9.0 | 0.00 | 0.06 | 0.03 | 94 | 1009.1 |
| 20260505112518 | 50 | 346 | 4.0 | 10.0 | 0.00 | 0.06 | 0.03 | 94 | 1009.0 |
| 20260505111501 | 50 | 345 | 3.0 | 9.0 | 0.00 | 0.06 | 0.03 | 94 | 1009.1 |
| 20260505111050 | 51 | 339 | 3.0 | 7.0 | 0.00 | 0.06 | 0.03 | 94 | 1009.1 |
| 20260505110553 | 50 | 326 | 3.0 | 9.0 | 0.00 | 0.06 | 0.03 | 94 | 1009.2 |
| 20260505101509 | 49 | 42 | 3.0 | 8.0 | 0.00 | 0.06 | 0.03 | 94 | 1009.3 |
| 20260505101012 | 49 | 25 | 3.0 | 8.0 | 0.00 | 0.06 | 0.03 | 93 | 1009.3 |
| 20260505100449 | 49 | 343 | 3.0 | 8.0 | 0.00 | 0.06 | 0.03 | 93 | 1009.3 |
| 20260505095949 | 49 | 34 | 3.0 | 7.0 | 0.00 | 0.06 | 0.03 | 93 | 1009.4 |
| 20260505095540 | 49 | 13 | 4.0 | 8.0 | 0.00 | 0.06 | 0.03 | 93 | 1009.4 |
| 20260505095022 | 49 | 346 | 4.0 | 8.0 | 0.00 | 0.06 | 0.03 | 93 | 1009.4 |
| 20260505094512 | 49 | 6 | 3.0 | 8.0 | 0.00 | 0.06 | 0.03 | 94 | 1009.4 |
| 20260505094005 | 50 | 10 | 2.0 | 7.0 | 0.00 | 0.06 | 0.03 | 94 | 1009.4 |
| 20260505093455 | 50 | 339 | 2.0 | 7.0 | 0.00 | 0.06 | 0.03 | 94 | 1009.4 |
| 20260505092950 | 50 | 356 | 2.0 | 7.0 | 0.00 | 0.06 | 0.03 | 94 | 1009.4 |
| 20260505092946 | 50 | 347 | 1.0 | 5.0 | 0.00 | 0.06 | 0.03 | 94 | 1009.4 |
| 20260505092036 | 50 | 18 | 2.0 | 7.0 | 0.00 | 0.06 | 0.03 | 94 | 1009.4 |
| 20260505091922 | 50 | 337 | 2.0 | 6.0 | 0.00 | 0.06 | 0.03 | 94 | 1009.4 |
| 20260505091009 | 50 | 35 | 2.0 | 7.0 | 0.00 | 0.06 | 0.03 | 94 | 1009.4 |
| 20260505090500 | 49 | 339 | 3.0 | 7.0 | 0.00 | 0.06 | 0.03 | 94 | 1009.4 |
| 20260505085950 | 49 | 19 | 3.0 | 7.0 | 0.00 | 0.06 | 0.03 | 94 | 1009.4 |
| 20260505085442 | 49 | 343 | 3.0 | 7.0 | 0.00 | 0.06 | 0.03 | 94 | 1009.3 |
| 20260505084942 | 49 | 31 | 4.0 | 9.0 | 0.00 | 0.06 | 0.03 | 94 | 1009.3 |
| 20260505084932 | 49 | 332 | 4.0 | 9.0 | 0.00 | 0.06 | 0.03 | 94 | 1009.3 |
| 20260505084025 | 49 | 1 | 4.0 | 9.0 | 0.00 | 0.06 | 0.03 | 94 | 1009.3 |
| 20260505083515 | 49 | 1 | 4.0 | 10.0 | 0.00 | 0.06 | 0.03 | 94 | 1009.4 |
| 20260505083004 | 49 | 328 | 4.0 | 10.0 | 0.00 | 0.06 | 0.03 | 94 | 1009.4 |
| 20260505082859 | 49 | 12 | 4.0 | 8.0 | 0.00 | 0.06 | 0.03 | 94 | 1009.4 |
| 20260505081939 | 49 | 277 | 4.0 | 8.0 | 0.00 | 0.06 | 0.03 | 94 | 1009.3 |
| 20260505081537 | 50 | 345 | 5.0 | 10.0 | 0.00 | 0.06 | 0.03 | 94 | 1009.3 |
| 20260505081026 | 50 | 6 | 4.0 | 13.0 | 0.00 | 0.06 | 0.03 | 94 | 1009.3 |
| 20260505080516 | 50 | 351 | 4.0 | 13.0 | 0.00 | 0.06 | 0.03 | 94 | 1009.2 |
| 20260505080406 | 50 | 335 | 4.0 | 12.0 | 0.00 | 0.06 | 0.03 | 94 | 1009.3 |
| 20260505075502 | 50 | 335 | 4.0 | 7.0 | 0.00 | 0.06 | 0.03 | 94 | 1009.2 |
| 20260505074953 | 50 | 326 | 3.0 | 10.0 | 0.00 | 0.06 | 0.03 | 94 | 1009.3 |
| 20260505074437 | 50 | 341 | 4.0 | 10.0 | 0.00 | 0.06 | 0.03 | 94 | 1009.2 |
| 20260505073937 | 50 | 14 | 5.0 | 9.0 | 0.00 | 0.06 | 0.03 | 94 | 1009.2 |
| 20260505073525 | 50 | 347 | 4.0 | 8.0 | 0.00 | 0.06 | 0.03 | 94 | 1009.3 |
| 20260505073016 | 50 | 328 | 4.0 | 8.0 | 0.00 | 0.06 | 0.03 | 94 | 1009.2 |
| 20260505072509 | 51 | 1 | 4.0 | 8.0 | 0.00 | 0.07 | 0.03 | 94 | 1009.2 |
| 20260505072001 | 51 | 320 | 3.0 | 7.0 | 0.00 | 0.07 | 0.03 | 95 | 1009.2 |
| 20260505071449 | 51 | 1 | 3.0 | 8.0 | 0.00 | 0.07 | 0.03 | 95 | 1009.1 |
| 20260505070935 | 51 | 16 | 5.0 | 11.0 | 0.00 | 0.07 | 0.03 | 95 | 1009.2 |
| 20260505070433 | 51 | 344 | 4.0 | 11.0 | 0.00 | 0.07 | 0.03 | 95 | 1009.1 |
| 20260505070024 | 51 | 337 | 3.0 | 10.0 | 0.00 | 0.07 | 0.03 | 95 | 1009.2 |
| 20260505065512 | 51 | 345 | 3.0 | 10.0 | 0.00 | 0.07 | 0.03 | 95 | 1009.2 |
| 20260505065001 | 51 | 11 | 3.0 | 8.0 | 0.00 | 0.07 | 0.03 | 95 | 1009.3 |
| 20260505064453 | 51 | 6 | 4.0 | 10.0 | 0.00 | 0.07 | 0.03 | 95 | 1009.2 |
| 20260505063943 | 51 | 10 | 4.0 | 10.0 | 0.00 | 0.07 | 0.03 | 95 | 1009.3 |
| 20260505063431 | 51 | 52 | 4.0 | 10.0 | 0.00 | 0.07 | 0.03 | 95 | 1009.3 |
| 20260505063021 | 51 | 14 | 4.0 | 10.0 | 0.00 | 0.07 | 0.03 | 95 | 1009.4 |
| 20260505062913 | 51 | 356 | 3.0 | 7.0 | 0.00 | 0.07 | 0.03 | 95 | 1009.3 |
| 20260505062003 | 51 | 352 | 3.0 | 7.0 | 0.00 | 0.07 | 0.03 | 95 | 1009.3 |
| 20260505061851 | 51 | 1 | 2.0 | 7.0 | 0.00 | 0.07 | 0.03 | 95 | 1009.4 |
| 20260505060945 | 51 | 347 | 2.0 | 6.0 | 0.00 | 0.07 | 0.03 | 95 | 1009.4 |
| 20260505060433 | 51 | 345 | 2.0 | 6.0 | 0.00 | 0.07 | 0.03 | 95 | 1009.3 |
| 20260505060024 | 51 | 1 | 3.0 | 7.0 | 0.00 | 0.07 | 0.03 | 95 | 1009.3 |
| 20260505055513 | 51 | 348 | 4.0 | 9.0 | 0.00 | 0.07 | 0.03 | 95 | 1009.4 |
| 20260505055005 | 51 | 6 | 3.0 | 9.0 | 0.00 | 0.07 | 0.03 | 95 | 1009.4 |
| 20260505054506 | 51 | 343 | 3.0 | 8.0 | 0.01 | 0.07 | 0.03 | 95 | 1009.3 |
| 20260505053945 | 51 | 6 | 4.0 | 8.0 | 0.01 | 0.07 | 0.03 | 95 | 1009.2 |
| 20260505053437 | 51 | 356 | 4.0 | 8.0 | 0.01 | 0.07 | 0.03 | 95 | 1009.3 |
| 20260505052929 | 52 | 19 | 3.0 | 7.0 | 0.01 | 0.07 | 0.03 | 95 | 1009.3 |
| 20260505052520 | 52 | 1 | 3.0 | 9.0 | 0.01 | 0.07 | 0.03 | 95 | 1009.3 |
| 20260505052315 | 52 | 315 | 3.0 | 9.0 | 0.01 | 0.07 | 0.03 | 95 | 1009.2 |
| 20260505051504 | 52 | 6 | 3.0 | 8.0 | 0.01 | 0.07 | 0.03 | 95 | 1009.2 |
| 20260505050957 | 52 | 346 | 4.0 | 8.0 | 0.01 | 0.07 | 0.03 | 95 | 1009.2 |
| 20260505050448 | 52 | 21 | 4.0 | 8.0 | 0.01 | 0.07 | 0.03 | 95 | 1009.1 |
| 20260505041524 | 53 | 12 | 3.0 | 10.0 | 0.00 | 0.06 | 0.02 | 95 | 1009.0 |
| 20260505041016 | 54 | 6 | 3.0 | 10.0 | 0.00 | 0.06 | 0.02 | 95 | 1008.9 |
| 20260505040505 | 54 | 6 | 3.0 | 7.0 | 0.00 | 0.06 | 0.02 | 95 | 1009.0 |
| 20260505040355 | 54 | 350 | 3.0 | 7.0 | 0.00 | 0.06 | 0.02 | 95 | 1009.0 |
| 20260505035446 | 54 | 330 | 3.0 | 8.0 | 0.00 | 0.06 | 0.02 | 94 | 1009.0 |
| 20260505034939 | 54 | 332 | 3.0 | 8.0 | 0.00 | 0.06 | 0.02 | 94 | 1009.0 |
| 20260505034433 | 54 | 340 | 3.0 | 8.0 | 0.00 | 0.06 | 0.02 | 94 | 1009.0 |
| 20260505034024 | 55 | 343 | 3.0 | 7.0 | 0.00 | 0.06 | 0.02 | 94 | 1009.0 |
| 20260505033817 | 55 | 1 | 3.0 | 7.0 | 0.00 | 0.06 | 0.02 | 94 | 1009.0 |
| 20260505033406 | 56 | 336 | 1.0 | 7.0 | 0.00 | 0.06 | 0.02 | 94 | 1009.0 |